TimeCDT,TemperatureF,Dew PointF,Humidity,Sea Level PressureIn,VisibilityMPH,Wind Direction,Wind SpeedMPH,Gust SpeedMPH,PrecipitationIn,Events,Conditions,WindDirDegrees,DateUTC
12:13 AM,60.8,59.0,94,30.12,1.8,Calm,Calm,-,N/A,,Clear,0,2012-10-04 05:13:00
12:20 AM,60.8,59.0,94,30.12,0.5,Calm,Calm,-,N/A,Fog,Fog,0,2012-10-04 05:20:00
12:30 AM,60.8,59.0,94,30.11,1.0,Calm,Calm,-,N/A,,Clear,0,2012-10-04 05:30:00
12:47 AM,60.8,59.0,94,30.12,3.0,Calm,Calm,-,N/A,,Clear,0,2012-10-04 05:47:00
12:53 AM,61.0,59.0,93,30.12,4.0,Calm,Calm,-,N/A,,Clear,0,2012-10-04 05:53:00
1:53 AM,60.1,57.9,93,30.13,4.0,Calm,Calm,-,N/A,,Clear,0,2012-10-04 06:53:00
1:59 AM,60.8,57.2,88,30.13,1.8,Calm,Calm,-,N/A,,Clear,0,2012-10-04 06:59:00
2:10 AM,60.8,57.2,88,30.13,0.5,Calm,Calm,-,N/A,Fog,Fog,0,2012-10-04 07:10:00
2:24 AM,60.8,59.0,94,30.13,0.5,Calm,Calm,-,N/A,Fog,Fog,0,2012-10-04 07:24:00
2:32 AM,59.0,57.2,94,30.13,0.2,Calm,Calm,-,N/A,Fog,Fog,0,2012-10-04 07:32:00
2:40 AM,59.0,57.2,94,30.13,0.5,Calm,Calm,-,N/A,Fog,Fog,0,2012-10-04 07:40:00
2:53 AM,59.0,57.9,96,30.13,0.5,Calm,Calm,-,N/A,Fog,Fog,0,2012-10-04 07:53:00
3:08 AM,59.0,57.2,94,30.13,0.2,Calm,Calm,-,N/A,Fog,Fog,0,2012-10-04 08:08:00
3:35 AM,59.0,57.2,94,30.14,0.5,Calm,Calm,-,N/A,Fog,Fog,0,2012-10-04 08:35:00
3:48 AM,59.0,57.2,94,30.14,0.5,Calm,Calm,-,N/A,Fog,Fog,0,2012-10-04 08:48:00
3:53 AM,59.0,57.9,96,30.14,0.5,Calm,Calm,-,N/A,Fog,Fog,0,2012-10-04 08:53:00
4:26 AM,57.2,57.2,100,30.15,0.2,Calm,Calm,-,0.01,Fog,Fog,0,2012-10-04 09:26:00
4:35 AM,57.2,57.2,100,30.15,0.8,Calm,Calm,-,0.01,,Mist,0,2012-10-04 09:35:00
4:38 AM,59.0,57.2,94,30.15,1.2,Calm,Calm,-,0.01,,Partly Cloudy,0,2012-10-04 09:38:00
4:53 AM,59.0,57.0,93,30.16,2.0,Calm,Calm,-,0.01,,Partly Cloudy,0,2012-10-04 09:53:00
5:01 AM,59.0,57.2,94,30.16,6.0,Calm,Calm,-,N/A,,Clear,0,2012-10-04 10:01:00
5:16 AM,57.2,57.2,100,30.17,1.8,Calm,Calm,-,N/A,,Clear,0,2012-10-04 10:16:00
5:31 AM,57.2,57.2,100,30.17,2.0,Calm,Calm,-,N/A,,Scattered Clouds,0,2012-10-04 10:31:00
5:36 AM,57.2,57.2,100,30.17,1.0,Calm,Calm,-,N/A,,Mist,0,2012-10-04 10:36:00
5:40 AM,59.0,57.2,94,30.17,0.2,Calm,Calm,-,N/A,Fog,Fog,0,2012-10-04 10:40:00
5:53 AM,59.0,57.9,96,30.17,0.2,Calm,Calm,-,N/A,Fog,Fog,0,2012-10-04 10:53:00
6:53 AM,57.0,55.9,96,30.19,0.2,Calm,Calm,-,N/A,Fog,Fog,0,2012-10-04 11:53:00
7:45 AM,57.2,57.2,100,30.20,1.2,Calm,Calm,-,N/A,,Overcast,0,2012-10-04 12:45:00
7:47 AM,59.0,57.2,94,30.20,3.0,Calm,Calm,-,N/A,,Overcast,0,2012-10-04 12:47:00
7:53 AM,59.0,57.9,96,30.20,3.0,Calm,Calm,-,N/A,,Overcast,0,2012-10-04 12:53:00
7:59 AM,60.8,59.0,94,30.20,1.8,Calm,Calm,-,N/A,,Overcast,0,2012-10-04 12:59:00
8:06 AM,60.8,60.8,100,30.20,0.5,Calm,Calm,-,N/A,Fog,Fog,0,2012-10-04 13:06:00
8:16 AM,60.8,60.8,100,30.21,0.2,Calm,Calm,-,N/A,Fog,Fog,0,2012-10-04 13:16:00
8:50 AM,64.4,64.4,100,30.22,0.5,Calm,Calm,-,N/A,Fog,Fog,0,2012-10-04 13:50:00
8:53 AM,64.9,64.0,97,30.22,0.8,Calm,Calm,-,N/A,,Overcast,0,2012-10-04 13:53:00
9:01 AM,64.4,64.4,100,30.22,1.0,Calm,Calm,-,N/A,,Overcast,0,2012-10-04 14:01:00
9:14 AM,66.2,64.4,94,30.23,3.0,Calm,Calm,-,N/A,,Mostly Cloudy,0,2012-10-04 14:14:00
9:26 AM,66.2,64.4,94,30.23,5.0,SSE,3.5,-,N/A,,Scattered Clouds,160,2012-10-04 14:26:00
9:53 AM,71.1,66.0,84,30.23,10.0,Calm,Calm,-,N/A,,Clear,0,2012-10-04 14:53:00
10:53 AM,75.9,66.0,71,30.23,10.0,Variable,3.5,-,N/A,,Clear,0,2012-10-04 15:53:00
11:53 AM,80.1,63.0,56,30.23,10.0,South,5.8,-,N/A,,Clear,190,2012-10-04 16:53:00
12:53 PM,81.0,63.0,54,30.22,10.0,Variable,3.5,-,N/A,,Mostly Cloudy,0,2012-10-04 17:53:00
1:53 PM,82.9,62.1,49,30.19,10.0,Variable,4.6,-,N/A,,Partly Cloudy,0,2012-10-04 18:53:00
2:53 PM,82.9,59.0,44,30.17,10.0,Variable,4.6,-,N/A,,Mostly Cloudy,0,2012-10-04 19:53:00
3:53 PM,84.0,59.0,43,30.16,10.0,South,5.8,-,N/A,,Clear,170,2012-10-04 20:53:00
4:53 PM,82.9,57.9,42,30.15,10.0,SSE,4.6,-,N/A,,Clear,150,2012-10-04 21:53:00
5:53 PM,81.0,60.1,49,30.14,10.0,Calm,Calm,-,N/A,,Clear,0,2012-10-04 22:53:00
6:53 PM,72.0,64.9,78,30.14,10.0,Calm,Calm,-,N/A,,Clear,0,2012-10-04 23:53:00
7:53 PM,68.0,64.0,87,30.14,10.0,SE,3.5,-,N/A,,Clear,140,2012-10-05 00:53:00
8:53 PM,64.9,62.1,90,30.15,10.0,Calm,Calm,-,N/A,,Clear,0,2012-10-05 01:53:00
9:53 PM,64.0,62.1,93,30.16,9.0,Calm,Calm,-,N/A,,Clear,0,2012-10-05 02:53:00
10:53 PM,63.0,61.0,93,30.17,8.0,Calm,Calm,-,N/A,,Clear,0,2012-10-05 03:53:00
11:53 PM,64.0,62.1,93,30.16,7.0,Calm,Calm,-,0.00,Rain,Light Rain,0,2012-10-05 04:53:00